Weather History for Muncie, IN

Change the Weather History Date:

Friday, November 1, 2013

  Actual Average Record
Temperature  
Mean Temperature 50 °F 49 °F  
Max Temperature 55 °F 58 °F 77 °F (1999)
Min Temperature 45 °F 39 °F 25 °F (1962)
Degree Days  
Heating Degree Days 15 16  
Month to date heating degree days 15 16  
Since 1 July heating degree days 487 480  
Cooling Degree Days 0 0  
Month to date cooling degree days 0 0  
Year to date cooling degree days 973 955  
Moisture  
Dew Point 44 °F    
Average Humidity 80    
Maximum Humidity 93    
Minimum Humidity 66    
Precipitation  
Precipitation 0.01 in 0.11 in 1.10 in (1979)
Month to date precipitation 0.01 0.11  
Year to date precipitation 32.62 33.90  
Sea Level Pressure  
Sea Level Pressure 29.58 in    
Wind  
Wind Speed 11 mph (WSW)    
Max Wind Speed 24 mph    
Max Gust Speed 33 mph    
Visibility 10 miles    
Events      
T = Trace of Precipitation, MM = Missing Value Source: NWS Daily Summary

Daily Weather History Graph

Daily Weather History Graph

Search for Another Location

Airport:

Trip Planner

Search our weather history database for the weather conditions in past years. The results will help you decide how hot, cold, wet, or windy it might be!

Date:

Astronomy

Nov. 01, 2013 Rise Set
Actual Time 8:11 AM EDT 6:38 PM EDT
Civil Twilight 7:43 AM EDT 7:06 PM EDT
Nautical Twilight 7:10 AM EDT 7:38 PM EDT
Astronomical Twilight 6:39 AM EDT 8:10 PM EDT
Moon 6:02 AM EDT (11/1) 5:31 PM EDT (11/1)
Length of Visible Light 11h 23m
Length of Day
10h 27m
Waning Crescent, 4% of the Moon is Illuminated
Nov 1
Waning Crescent
Nov 3
New
Nov 10
First Quarter
Nov 17
Full
Nov 25
Last Quarter

Hourly Weather History & Observations

Time (EDT) Temp. Windchill Dew Point Humidity Pressure Visibility Wind Dir Wind Speed Gust Speed Precip Events Conditions
12:13 AM 55.4 °F - 53.6 °F 94% 29.37 in 10.0 mi West 11.5 mph 23.0 mph N/A   Overcast
12:53 AM 55.0 °F - 53.1 °F 93% 29.38 in 10.0 mi West 12.7 mph - 0.00 in   Overcast
1:07 AM 53.6 °F - 51.8 °F 94% 29.40 in 10.0 mi WSW 19.6 mph 26.5 mph N/A   Overcast
1:19 AM 53.6 °F - 50.0 °F 88% 29.41 in 10.0 mi West 17.3 mph 27.6 mph N/A   Overcast
1:27 AM 53.6 °F - 50.0 °F 88% 29.43 in 10.0 mi West 19.6 mph 26.5 mph N/A   Overcast
1:53 AM 52.0 °F - 48.0 °F 86% 29.43 in 10.0 mi West 18.4 mph 24.2 mph N/A   Mostly Cloudy
2:01 AM 51.8 °F - 48.2 °F 88% 29.45 in 10.0 mi West 15.0 mph 29.9 mph N/A   Mostly Cloudy
2:19 AM 51.8 °F - 48.2 °F 88% 29.46 in 10.0 mi West 15.0 mph 23.0 mph N/A   Scattered Clouds
2:22 AM 51.8 °F - 48.2 °F 88% 29.46 in 10.0 mi West 17.3 mph 23.0 mph N/A   Mostly Cloudy
2:31 AM 51.8 °F - 46.4 °F 82% 29.47 in 10.0 mi West 21.9 mph 32.2 mph N/A   Mostly Cloudy
2:53 AM 51.1 °F - 46.0 °F 83% 29.47 in 10.0 mi West 18.4 mph 27.6 mph N/A   Overcast
3:53 AM 50.0 °F - 46.0 °F 86% 29.50 in 10.0 mi West 17.3 mph 24.2 mph N/A   Overcast
4:53 AM 48.0 °F - 43.0 °F 83% 29.53 in 10.0 mi West 11.5 mph 27.6 mph N/A   Overcast
5:53 AM 46.9 °F - 41.0 °F 80% 29.56 in 10.0 mi WSW 12.7 mph 21.9 mph N/A   Overcast
6:09 AM 46.4 °F 41.9 °F 41.0 °F 81% 29.58 in 10.0 mi WSW 9.2 mph - N/A   Scattered Clouds
6:53 AM 46.0 °F 41.0 °F 41.0 °F 83% 29.58 in 10.0 mi WSW 10.4 mph - N/A   Scattered Clouds
7:53 AM 46.0 °F 40.2 °F 42.1 °F 86% 29.60 in 10.0 mi WSW 12.7 mph - N/A   Partly Cloudy
8:53 AM 46.0 °F 40.6 °F 42.1 °F 86% 29.62 in 10.0 mi SW 11.5 mph 20.7 mph N/A   Scattered Clouds
9:02 AM 46.4 °F 42.4 °F 42.8 °F 87% 29.63 in 10.0 mi SW 8.1 mph - N/A   Mostly Cloudy
9:30 AM 46.4 °F 41.5 °F 42.8 °F 87% 29.64 in 10.0 mi WSW 10.4 mph - N/A   Overcast
9:53 AM 46.9 °F - 43.0 °F 86% 29.64 in 10.0 mi WSW 8.1 mph - N/A   Overcast
10:53 AM 48.0 °F - 44.1 °F 86% 29.65 in 10.0 mi SW 8.1 mph - N/A   Overcast
11:28 AM 48.2 °F - 44.6 °F 87% 29.65 in 10.0 mi SW 8.1 mph - N/A   Overcast
11:53 AM 50.0 °F - 44.1 °F 80% 29.65 in 10.0 mi WSW 15.0 mph 19.6 mph N/A   Overcast
12:25 PM 51.8 °F - 44.6 °F 76% 29.66 in 10.0 mi WSW 13.8 mph 20.7 mph N/A   Overcast
12:53 PM 53.1 °F - 44.1 °F 71% 29.65 in 10.0 mi WSW 15.0 mph 21.9 mph N/A   Overcast
1:53 PM 53.1 °F - 43.0 °F 69% 29.64 in 10.0 mi WSW 12.7 mph 19.6 mph N/A   Overcast
2:53 PM 53.1 °F - 43.0 °F 69% 29.63 in 10.0 mi West 9.2 mph - N/A   Overcast
3:53 PM 54.0 °F - 43.0 °F 66% 29.63 in 10.0 mi WSW 12.7 mph 21.9 mph N/A   Overcast
4:53 PM 53.1 °F - 43.0 °F 69% 29.65 in 10.0 mi WNW 10.4 mph 20.7 mph N/A   Overcast
5:53 PM 51.1 °F - 42.1 °F 71% 29.67 in 10.0 mi WNW 12.7 mph - N/A   Mostly Cloudy
6:53 PM 50.0 °F - 41.0 °F 71% 29.69 in 10.0 mi West 5.8 mph - N/A   Mostly Cloudy
7:53 PM 50.0 °F - 42.1 °F 74% 29.71 in 10.0 mi West 4.6 mph - N/A   Overcast
8:53 PM 50.0 °F - 41.0 °F 71% 29.72 in 10.0 mi West 11.5 mph 17.3 mph N/A   Overcast
9:53 PM 48.0 °F - 37.9 °F 68% 29.73 in 10.0 mi West 11.5 mph - N/A   Overcast
10:53 PM 48.0 °F - 39.0 °F 71% 29.74 in 10.0 mi West 9.2 mph - N/A   Overcast
11:48 PM 46.4 °F 43.5 °F 41.0 °F 81% 29.75 in 10.0 mi West 5.8 mph - 0.01 in   Overcast
11:53 PM 46.0 °F 43.9 °F 41.0 °F 83% 29.75 in 10.0 mi West 4.6 mph - 0.01 in   Overcast